Dati Storici

Data ora Umidita' aria (%) Temperatura aria (°C) Rad globale (W/m²) Gonioanemometro (°) Tacoanemometro (m/s) Pioggia (mm)
19-10-2012 17:20 68.4 % 17.652 58.167 208.282 1.941 0
19-10-2012 17:10 67.2 % 17.725 98.05 192.235 2.691 0
19-10-2012 17:00 66.8 % 18.04 132.717 174.527 1.461 0
19-10-2012 16:50 65.4 % 17.995 154.757 198.218 2.289 0
19-10-2012 16:40 64.3 % 18.307 198.392 184.124 2.328 0
19-10-2012 16:30 63.3 % 18.553 196.997 198.406 1.853 0
19-10-2012 16:20 62 % 18.689 164.288 197.233 1.494 0
19-10-2012 16:10 60.1 % 18.626 158.837 219.213 2.801 0
19-10-2012 16:00 58.9 % 18.96 187.894 143.091 1.405 0
19-10-2012 15:50 59.2 % 19.777 288.129 80.542 0.452 0
19-10-2012 15:40 59.8 % 19.432 333.083 336.65 0.704 0
19-10-2012 15:30 59.8 % 19.99 380.996 148.781 0.789 0
19-10-2012 15:20 61 % 18.935 378.242 208.383 0.456 0
19-10-2012 15:10 61.8 % 18.67 342.385 261.255 0.718 0
19-10-2012 15:00 60.7 % 18.717 355.641 278.455 1.107 0
19-10-2012 14:50 60.1 % 18.648 228.606 199.173 0.695 0
19-10-2012 14:40 59.2 % 19.966 300.896 229.5 0.327 0
19-10-2012 14:30 60.5 % 19.363 439.769 1.412 1.424 0
19-10-2012 14:20 61.4 % 18.81 422.015 320.012 1.542 0
19-10-2012 14:10 62.1 % 18.862 442.952 265.045 1.256 0

I dati sono presentati in modo automatico a scopo informativo. In seguito a verifica i dati possono subire modifiche o essere invalidati e non riportati negli archivi definitivi.